This is the latest recevied weather packets stored in our database for station/object DO3HUM-5. If no packets are shown the sender has not sent any weather packets the latest 10 day(s).
| Time | Temp. | Humidity | Pressure | Rain* | Wind** | Luminosity | Snow |
|---|---|---|---|---|---|---|---|
| 1777880176 | 17.22° C | 65% | 1021.1 hPa | 0 mm | - | - | - |
| 1777879573 | 16.67° C | 65% | 1021 hPa | 0 mm | - | - | - |
| 1777878969 | 16.67° C | 66% | 1021 hPa | 0 mm | - | - | - |
| 1777878368 | 16.67° C | 66% | 1020.9 hPa | 0 mm | - | - | - |
| 1777877763 | 16.67° C | 67% | 1020.8 hPa | 0 mm | - | - | - |
| 1777877162 | 16.67° C | 67% | 1020.7 hPa | 0 mm | - | - | - |
| 1777876557 | 16.67° C | 69% | 1020.6 hPa | 0 mm | - | - | - |
| 1777875956 | 16.11° C | 71% | 1020.7 hPa | 0 mm | - | - | - |
| 1777875355 | 16.11° C | 75% | 1020.5 hPa | 0 mm | - | - | - |
| 1777874749 | 15.56° C | 75% | 1020.4 hPa | 0 mm | - | - | - |
| 1777874148 | 15.56° C | 76% | 1020.3 hPa | 0 mm | - | - | - |
| 1777873544 | 15.56° C | 76% | 1020.1 hPa | 0 mm | - | - | - |
| 1777872941 | 15° C | 77% | 1020.1 hPa | 0.25 mm | - | - | - |
| 1777872338 | 15° C | 79% | 1020.1 hPa | 0.25 mm | - | - | - |
| 1777871737 | 14.44° C | 79% | 1020.1 hPa | 0.25 mm | - | - | - |
| 1777871133 | 14.44° C | 82% | 1019.9 hPa | 0.25 mm | - | - | - |
| 1777870531 | 13.89° C | 83% | 1019.7 hPa | 0.25 mm | - | - | - |
| 1777869926 | 13.33° C | 84% | 1019.7 hPa | 0.25 mm | - | - | - |
| 1777869323 | 13.33° C | 85% | 1019.7 hPa | 0 mm | - | - | - |
| 1777868721 | 13.33° C | 84% | 1019.7 hPa | 0 mm | - | - | - |
| 1777868117 | 13.33° C | 82% | 1019.7 hPa | 0 mm | - | - | - |
| 1777867574 | 13.89° C | 78% | 1019.6 hPa | 0 mm | - | - | - |
| 1777866972 | 13.89° C | 74% | 1019.5 hPa | 0 mm | - | - | - |
| 1777866370 | 13.89° C | 75% | 1019.6 hPa | 0 mm | - | - | - |
| 1777865765 | 13.89° C | 73% | 1019.7 hPa | 0 mm | - | - | - |
* Rain latest hour (hover to see other rain measurements)
** Current wind speed in m/s (hover to see current wind gust speed)